Weather History for Teresina Aeroporto, Brazil

Change the Weather History Date:

Sunday, December 9, 2012

  Actual Average Record
Temperature  
Mean Temperature 88 °F -  
Max Temperature 97 °F 92 °F 102 °F (2006)
Min Temperature 78 °F 74 °F 73 °F (2005)
Cooling Degree Days 22    
Growing Degree Days 38 (Base 50)    
Moisture  
Dew Point 73 °F    
Average Humidity 71    
Maximum Humidity 94    
Minimum Humidity 28    
Precipitation  
Precipitation 0.04 in - - ()
Sea Level Pressure  
Sea Level Pressure 29.84 in    
Wind  
Wind Speed 2 mph ()    
Max Wind Speed 6 mph    
Max Gust Speed -    
Visibility 7.0 miles    
Events Rain , Thunderstorm    
Averages and records for this station are not official NWS values.
T = Trace of Precipitation, MM = Missing Value Source: Averaged Metar Reports

Daily Weather History Graph

Daily Weather History Graph

Search for Another Location

Airport:

Trip Planner

Search our weather history database for the weather conditions in past years. The results will help you decide how hot, cold, wet, or windy it might be!

Date:

Astronomy

Dec. 09, 2012 Rise Set
Actual Time 5:31 AM BRT 5:56 PM BRT
Civil Twilight 5:08 AM BRT 6:18 PM BRT
Nautical Twilight 4:42 AM BRT 6:45 PM BRT
Astronomical Twilight 4:15 AM BRT 7:11 PM BRT
Moon 1:43 AM BRT (12/9) 2:17 PM BRT (12/9)
Length of Visible Light 13h 09m
Length of Day
12h 24m
Waning Crescent, 19% of the Moon is Illuminated
Dec 9
Waning Crescent
Dec 13
New
Dec 20
First Quarter
Dec 28
Full
Jan 5
Last Quarter

Hourly Weather History & Observations

Time (BRT) Temp. Heat Index Dew Point Humidity Pressure Visibility Wind Dir Wind Speed Gust Speed Precip Events Conditions
12:00 AM 80.6 °F 88.1 °F 78.8 °F 94% 29.86 in 6.2 mi NNW 5.8 mph - N/A   Scattered Clouds
1:00 AM 80.6 °F 87.1 °F 77.0 °F 89% 29.83 in 6.2 mi NNW 3.5 mph - N/A   Scattered Clouds
2:00 AM 80.6 °F 87.1 °F 77.0 °F 89% 29.80 in - NNW 3.5 mph - N/A   Clear
3:00 AM 80 °F - 76 °F 84% 29.82 in 12 mi NNW 3.5 mph - -   Partly Cloudy
3:00 AM 78.8 °F - 75.2 °F 89% 29.83 in 6.2 mi NNW 3.5 mph - N/A   Mostly Cloudy
4:00 AM 78.8 °F - 75.2 °F 89% 29.80 in 6.2 mi Calm Calm - N/A   Scattered Clouds
5:00 AM 78.8 °F - 75.2 °F 89% 29.83 in 6.2 mi Calm Calm - N/A   Scattered Clouds
6:00 AM 78.8 °F - 77.0 °F 94% 29.83 in 6.2 mi Calm Calm - N/A   Partly Cloudy
7:00 AM 80.6 °F 87.1 °F 77.0 °F 89% 29.89 in - Calm Calm - N/A   Clear
8:00 AM 82.4 °F 90.9 °F 77.0 °F 84% 29.89 in 6.2 mi North 3.5 mph - N/A   Scattered Clouds
9:00 AM 86 °F - 58 °F 28% 29.90 in 12 mi Calm Calm - -   Mostly Cloudy
9:00 AM 86.0 °F 84.9 °F 57.2 °F 37% 29.89 in 6.2 mi Calm Calm - N/A   Mostly Cloudy
10:00 AM 91.4 °F 105.1 °F 77.0 °F 63% 29.89 in 6.2 mi Calm Calm - N/A   Mostly Cloudy
11:00 AM 93.2 °F 105.0 °F 75.2 °F 56% 29.86 in 6.2 mi West 2.3 mph - N/A   Mostly Cloudy
12:00 PM 95.0 °F 103.2 °F 71.6 °F 47% 29.86 in 6.2 mi Calm Calm - N/A   Mostly Cloudy
1:00 PM 96.8 °F 107.3 °F 73.4 °F 47% 29.83 in 6.2 mi West 3.5 mph - N/A   Mostly Cloudy
2:00 PM 96.8 °F 105.1 °F 71.6 °F 44% 29.80 in 6.2 mi WNW 2.3 mph - N/A   Scattered Clouds
3:00 PM 96 °F - 72 °F 36% 29.77 in 12 mi North 2.3 mph - - Thunderstorm Thunderstorm
3:00 PM 96.8 °F 105.1 °F 71.6 °F 44% 29.77 in 6.2 mi North 2.3 mph - N/A Thunderstorm Thunderstorm
4:00 PM 89.6 °F 94.7 °F 69.8 °F 52% 29.77 in 3.7 mi WNW 5.8 mph - N/A   Overcast
5:00 PM 80.6 °F 83.9 °F 69.8 °F 70% 29.77 in 6.2 mi NNW 1.2 mph - N/A   Overcast
6:00 PM 80.6 °F 84.6 °F 71.6 °F 74% 29.77 in 6.2 mi WNW 1.2 mph - N/A   Overcast
7:00 PM 82.4 °F 87.2 °F 71.6 °F 70% 29.77 in 6.2 mi North 1.2 mph - N/A   Mostly Cloudy
8:00 PM 78.8 °F - 77.0 °F 94% - 6.2 mi NNW 2.3 mph - N/A Thunderstorm Mostly Cloudy
9:00 PM 81 °F - 74 °F 74% 30.07 in 12 mi North 3.5 mph - -   Overcast
9:00 PM 80.6 °F 85.4 °F 73.4 °F 79% - 6.2 mi North 3.5 mph - N/A Thunderstorm Overcast
10:00 PM 78.8 °F - 75.2 °F 89% 29.86 in 6.2 mi NNW 3.5 mph - N/A   Mostly Cloudy
11:00 PM 78.8 °F - 73.4 °F 83% 29.89 in 6.2 mi SE 4.6 mph - N/A Rain Light Rain